Retour au catalogue

ARIANE 5 R/B

ActifHEO
NORAD 32769·ROCKET BODY·🇫🇷 France

Lancé Apr 18, 2008 depuis Guiana Space Centre

Loading…

Prochains Passages (prochaines 24 heures)

TLE

FraisSource: Space-Track

Époque: Sep 14, 2026, 13:15 UTC

1 32769U 08018C   26257.55245472  .00001001  00000-0  35516-3 0  9995
2 32769   1.5434  83.9975 6898386 355.7215   0.5868  2.76527436169031

Suivez ARIANE 5 R/B en temps réel avec AllMySat

Download on the App Store